Regional Weather Roundup
Issued by NWS

Home | Current Version | Previous Version | Graphics & Text | Print | Product List | Glossary On
Versions: 1 2 3 4 5 6 7 8 9 10 11 12 13 14 15 16 17 18 19 20 21 22 23 24 25 26 27
000
ASUS45 KBOU 231607
RWRCO

WEATHER ROUNDUP FOR COLORADO
NATIONAL WEATHER SERVICE DENVER/BOULDER CO
1000 AM MDT SAT JUL 23 2016

NOTE: "FAIR" INDICATES FEW OR NO CLOUDS BELOW 12000 FEET WITH NO
SIGNIFICANT WEATHER AND/OR OBSTRUCTIONS TO VISIBILITY.

COZ001>005-013-030-031-231700-
...NORTHWEST COLORADO...

CITY           SKY/WX    TMP DP  RH WIND       PRES   REMARKS
CRAIG          FAIR      77  46  33 N3        30.26F
HAYDEN         FAIR      72  45  37 E6        30.29S
MEEKER         FAIR      74  46  36 CALM      30.27F
MOUNT WERNER   NOT AVBL
STEAMBOAT SPGS FAIR      70  46  43 CALM      30.31F
WALDEN         FAIR      70  43  37 S7        30.38F
$$

COZ006>008-011-231700-
...WEST CENTRAL VALLEYS...

CITY           SKY/WX    TMP DP  RH WIND       PRES   REMARKS
GRAND JUNCTION FAIR      78  53  41 SE9       30.17F
MONTROSE       FAIR      76  49  38 CALM      30.26F
EAGLE          SUNNY     70  46  43 CALM      30.34F
RIFLE          FAIR      74  50  42 CALM      30.23F
DELTA          FAIR      77  50  39 CALM      30.23S HAZE
NUCLA          FAIR      75  45  33 CALM      30.30F
$$

COZ017>023-064>068-231700-
...SOUTHWEST COLORADO...

CITY           SKY/WX    TMP DP  RH WIND       PRES   REMARKS
DURANGO        FAIR      75  47  36 W3        30.29F
CORTEZ         FAIR      80  47  31 VRB3      30.25F
PAGOSA SPRINGS FAIR      75  41  29 CALM      30.38S
TELLURIDE      FAIR      68  43  41 CALM      30.51F
WOLF CREEK PAS FAIR      59  36  41 N8G20     30.74R
$$

COZ009-010-012-014-032>034-037-058>063-231700-
...CENTRAL COLORADO...

CITY           SKY/WX    TMP DP  RH WIND       PRES   REMARKS
ASPEN          FAIR      70  47  43 VRB3      30.38F
BUENA VISTA    FAIR      73  43  34 S3        30.38S
COPPER MTN     FAIR      61  39  44 W8        30.72S
BERTHOUD PASS  FAIR      50  36  57 N15G22    30.74S
COTTONWOOD PAS FAIR      70  41  35 E3        30.53S
GUNNISON       FAIR      63  48  59 CALM      30.45F
KREMMLING      FAIR      66  45  45 CALM      30.39F
LEADVILLE      FAIR      66  37  34 MISG      30.53S
MONARCH PASS   FAIR      55  37  50 MISG      30.81S
SALIDA         FAIR      72  45  37 CALM      30.42F
SUNLIGHT       FAIR      64  41  42 W3        30.65S
WILKERSON PASS FAIR      63  32  31 CALM      30.66F
$$

COZ069>075-231700-
...SAN LUIS VALLEY/SANGRE DE CRISTO MOUNTAINS...

CITY           SKY/WX    TMP DP  RH WIND       PRES   REMARKS
ALAMOSA        FAIR      71  48  43 CALM      30.36F
LA VETA PASS   FAIR      64  41  42 S6        30.55R
SAGUACHE       FAIR      73  46  38 NW14      30.38F
$$

COZ035-036-038>040-231700-
...NORTHERN COLORADO FRONT RANGE...

CITY           SKY/WX    TMP DP  RH WIND       PRES   REMARKS
DENVER INTL AP FAIR      87  42  20 NW5       30.12S
DMNS CITY PARK   N/A     86  46  24 SE2       30.11S
AURORA         MOSUNNY   85  46  25 S3        30.15S
FRONT RANGE AP MOSUNNY   88  45  22 W10       30.14S
ERIE MUNI ARPT FAIR      89  38  17 CALM      30.08F
BOULDER MUN AP FAIR      86  50  28 NE6       30.09F
CENTENNIAL     FAIR      85  39  19 NW3       30.16S
BROOMFIELD     MOSUNNY   88  46  23 SE5       30.14F
LONGMONT       FAIR      86  57  36 SE3       30.09F
$$

COZ041-046-047-076>085-087-088-231700-
...PIKES PEAK/PALMER DIVIDE AND SOUTHERN FOOTHILLS...

CITY           SKY/WX    TMP DP  RH WIND       PRES   REMARKS
COLO. SPRINGS  FAIR      88  42  20 N10       30.20S
A. F. ACADEMY  FAIR      84  39  20 N7        30.22S
SCHRIEVER AFB  NOT AVBL
ELLICOTT       FAIR     N/A N/A N/A NE10      30.17S
FALCON         NOT AVBL
FORT CARSON    FAIR      87  43  21 N13       30.16S
LIMON          FAIR      89  46  22 NW12      30.11S
MONUMENT HILL  FAIR      79  45  29 NW7       30.28S
TRINIDAD       NOT AVBL
$$

COZ042>045-048>051-090-091-231700-
...NORTHEAST COLORADO...

CITY           SKY/WX    TMP DP  RH WIND       PRES   REMARKS
GREELEY ARPT   FAIR      84  64  51 S5        30.07S
AKRON          FAIR      82  62  50 W13       30.05F
BURLINGTON     FAIR      85  61  44 NW6       30.00S
WRAY           FAIR      81  64  57 W6        29.98
STERLING       FAIR      81  70  69 S8        29.99F
HOLYOKE        FAIR      84  68  58 W6        29.98F
FORT MORGAN    FAIR      83  58  42 W5        30.06S
$$

COZ086-089-092>099-231700-
...SOUTHEAST COLORADO...

CITY           SKY/WX    TMP DP  RH WIND       PRES   REMARKS
PUEBLO         FAIR      92  49  22 NW9       30.06F
LA JUNTA       FAIR      89  52  28 VRB6      30.02S
LAMAR          FAIR      90  57  32 W8        29.95F
SPRINGFIELD      N/A     92  48  22 W6        30.02F
$$




USA.gov is the U.S. government's official web portal to all federal, state and local government web resources and services.